Location: Demmingen
(48.6757°N, 10.4375°E)
Time: 22:34:20
(UTC+00:00)

Cosmos 1025 Rocket - Pass Details

Date: 23 May 2024
Orbit: 590 x 614 km, 82.5° (Epoch: 14 June)

Event Time Altitude Azimuth Distance (km) Brightness Sun altitude
Rises 02:39:27 0° 175° (S) 2,869 6.1 -7.1°
Reaches altitude 10° 02:41:41 10° 171° (S) 1,970 5.3 -6.8°
Maximum altitude 02:45:56 54° 95° (E) 753 3.8 -6.3°
Drops below altitude 10° 02:50:14 10° 18° (NNE) 1,986 6.7 -5.7°
Sets 02:52:29 0° 14° (NNE) 2,894 7.5 -5.5°
